Orbital Elements at Epoch 2459200.5 (2020-Dec-17.0) TDB
Reference: JPL 19 (heliocentric ecliptic J2000)
Element | Value | Uncertainty (1-sigma) | Units |
e | .07997691524551302 | 6.5665e-08 | |
a | 2.855622384600989 | 1.8664e-08 | au |
q | 2.627238515174566 | 1.866e-07 | au |
i | 1.371129204922293 | 6.5805e-06 | deg |
node | 338.2243567188138 | 0.00018598 | deg |
peri | 9.272817820915369 | 0.00018805 | deg |
M | 259.8988359530276 | 3.01e-05 | deg |
tp | 2459690.601712881695 (2022-Apr-21.10171288) | 0.00014914 | TDB |
period | 1762.583066013271 4.83 | 1.728e-05 4.731e-08 | d yr |
n | .204245693120309 | 2.0024e-09 | deg/d |
Q | 3.084006254027412 | 2.0157e-08 | au |
|
| | Orbit Determination Parameters
Additional Information
|